Tracking 18840 objects as of 18-November-2017
HD Live streaming from Space Station
objects crossing your sky now

METEOR 1-11 DEB

Track METEOR 1-11 DEB now!
10-day predictions


NORAD ID: 36305
Int'l Code: 1972-022D
Perigee: 758.0 km
Apogee: 778.6 km
Inclination: 81.2 °
Period: 100.1 minutes
Semi major axis: 7139 km
RCS: 0.003 m2 (small)
Launch date: March 30, 1972
Source: Commonwealth of Independent States (former USSR) (CIS)
Launch site: PLESETSK MISSILE AND SPACE COMPLEX (PKMTR)

Note: This is SATELLITE DEBRIS
aabbcc
Your satellite tracking list
Your tracking list is empty




NASA's NSSDC Master Catalog

Two Line Element Set (TLE):
1 36305U 72022D   17308.87809119  .00002853  00000-0  91621-3 0  9992
2 36305  81.2040  11.2374 0014419 253.0978 106.8628 14.39182137482212
Source of the keplerian elements: AFSPC